Time,TemperatureF,DewpointF,PressureIn,WindDirection,WindDirectionDegrees,WindSpeedMPH,WindSpeedGustMPH,Humidity,HourlyPrecipIn,Conditions,Clouds,dailyrainin,SoftwareType,DateUTC
2013-08-28 00:39:00,61.9,61.0,29.92,NNW,329,0.0,1.0,96,0.00,,,0.00,weatherlink.com 1.10,2013-08-28 04:39:00,
2013-08-28 00:54:00,61.9,61.0,29.91,NNW,329,0.0,1.0,96,0.00,,,0.00,weatherlink.com 1.10,2013-08-28 04:54:00,
2013-08-28 01:09:00,61.8,61.0,29.91,NNW,337,0.0,1.0,96,0.00,,,0.00,weatherlink.com 1.10,2013-08-28 05:09:00,
2013-08-28 01:25:00,61.5,60.0,29.91,NNW,336,0.0,0.0,96,0.00,,,0.00,weatherlink.com 1.10,2013-08-28 05:25:00,
2013-08-28 01:40:00,61.3,60.0,29.91,NNW,337,0.0,1.0,96,0.00,,,0.00,weatherlink.com 1.10,2013-08-28 05:40:00,
2013-08-28 01:55:00,61.3,60.0,29.91,NNW,337,0.0,0.0,96,0.00,,,0.00,weatherlink.com 1.10,2013-08-28 05:55:00,
2013-08-28 02:10:00,61.0,60.0,29.91,NNW,337,0.0,0.0,96,0.00,,,0.00,weatherlink.com 1.10,2013-08-28 06:10:00,
2013-08-28 02:25:00,60.8,60.0,29.91,NNW,336,0.0,0.0,97,0.00,,,0.00,weatherlink.com 1.10,2013-08-28 06:25:00,
2013-08-28 02:40:00,60.7,60.0,29.90,NNE,15,0.0,2.0,96,0.00,,,0.00,weatherlink.com 1.10,2013-08-28 06:40:00,
2013-08-28 02:55:00,60.3,59.0,29.90,NNE,14,0.0,0.0,96,0.00,,,0.00,weatherlink.com 1.10,2013-08-28 06:55:00,
2013-08-28 03:10:00,60.4,60.0,29.90,SE,144,1.0,1.0,97,0.00,,,0.00,weatherlink.com 1.10,2013-08-28 07:10:00,
2013-08-28 03:25:00,60.7,60.0,29.90,SE,144,0.0,1.0,97,0.00,,,0.00,weatherlink.com 1.10,2013-08-28 07:25:00,
2013-08-28 03:40:00,60.7,60.0,29.90,SE,144,0.0,1.0,97,0.00,,,0.00,weatherlink.com 1.10,2013-08-28 07:40:00,
2013-08-28 03:55:00,60.4,60.0,29.90,SE,144,0.0,0.0,97,0.00,,,0.00,weatherlink.com 1.10,2013-08-28 07:55:00,
2013-08-28 04:10:00,60.1,59.0,29.90,SE,144,0.0,0.0,97,0.00,,,0.00,weatherlink.com 1.10,2013-08-28 08:10:00,
2013-08-28 04:25:00,59.9,59.0,29.90,SE,144,0.0,0.0,97,0.00,,,0.00,weatherlink.com 1.10,2013-08-28 08:25:00,
2013-08-28 04:40:00,60.0,59.0,29.90,SE,144,0.0,0.0,97,0.00,,,0.00,weatherlink.com 1.10,2013-08-28 08:40:00,
2013-08-28 04:55:00,60.2,59.0,29.90,SE,144,0.0,0.0,97,0.00,,,0.00,weatherlink.com 1.10,2013-08-28 08:55:00,
2013-08-28 05:10:00,60.0,59.0,29.91,SE,144,0.0,0.0,97,0.00,,,0.00,weatherlink.com 1.10,2013-08-28 09:10:00,
2013-08-28 05:25:00,60.1,59.0,29.90,SE,144,0.0,1.0,97,0.00,,,0.00,weatherlink.com 1.10,2013-08-28 09:25:00,
2013-08-28 05:40:00,60.1,59.0,29.91,SE,144,0.0,0.0,97,0.00,,,0.00,weatherlink.com 1.10,2013-08-28 09:40:00,
2013-08-28 05:55:00,60.3,60.0,29.91,SE,144,0.0,1.0,97,0.00,,,0.00,weatherlink.com 1.10,2013-08-28 09:55:00,
2013-08-28 06:10:00,60.4,60.0,29.91,NW,319,1.0,2.0,97,0.00,,,0.00,weatherlink.com 1.10,2013-08-28 10:10:00,
2013-08-28 06:25:00,60.5,60.0,29.92,NE,55,0.0,5.0,97,0.00,,,0.00,weatherlink.com 1.10,2013-08-28 10:25:00,
2013-08-28 06:40:00,60.6,60.0,29.92,East,101,0.0,0.0,97,0.00,,,0.00,weatherlink.com 1.10,2013-08-28 10:40:00,
2013-08-28 06:55:00,60.4,60.0,29.92,WNW,286,1.0,5.0,97,0.00,,,0.00,weatherlink.com 1.10,2013-08-28 10:55:00,
2013-08-28 07:10:00,60.0,59.0,29.93,SW,215,0.0,1.0,97,0.00,,,0.00,weatherlink.com 1.10,2013-08-28 11:10:00,
2013-08-28 07:25:00,60.0,59.0,29.93,SE,146,0.0,1.0,97,0.00,,,0.00,weatherlink.com 1.10,2013-08-28 11:25:00,
2013-08-28 07:40:00,59.9,59.0,29.93,West,276,0.0,1.0,97,0.00,,,0.00,weatherlink.com 1.10,2013-08-28 11:40:00,
2013-08-28 07:55:00,60.1,59.0,29.93,West,278,0.0,1.0,97,0.00,,,0.00,weatherlink.com 1.10,2013-08-28 11:55:00,
2013-08-28 08:10:00,60.4,60.0,29.93,SSE,149,1.0,1.0,97,0.00,,,0.00,weatherlink.com 1.10,2013-08-28 12:10:00,
2013-08-28 08:25:00,60.9,60.0,29.94,ESE,121,0.0,1.0,97,0.00,,,0.00,weatherlink.com 1.10,2013-08-28 12:25:00,
2013-08-28 08:40:00,61.7,61.0,29.93,WNW,288,0.0,1.0,97,0.00,,,0.00,weatherlink.com 1.10,2013-08-28 12:40:00,
2013-08-28 08:55:00,62.3,62.0,29.93,SSE,157,0.0,1.0,97,0.00,,,0.00,weatherlink.com 1.10,2013-08-28 12:55:00,
2013-08-28 09:10:00,63.2,62.0,29.93,North,350,1.0,1.0,97,0.00,,,0.00,weatherlink.com 1.10,2013-08-28 13:10:00,
2013-08-28 09:25:00,63.1,62.0,29.94,NW,310,1.0,2.0,96,0.00,,,0.00,weatherlink.com 1.10,2013-08-28 13:25:00,
2013-08-28 09:40:00,64.1,63.0,29.94,South,175,2.0,5.0,97,0.00,,,0.00,weatherlink.com 1.10,2013-08-28 13:40:00,
2013-08-28 09:55:00,64.5,63.0,29.95,WSW,243,0.0,5.0,94,0.00,,,0.00,weatherlink.com 1.10,2013-08-28 13:55:00,
2013-08-28 10:40:00,66.0,63.0,29.95,NW,323,2.0,4.0,90,0.00,,,0.00,weatherlink.com 1.10,2013-08-28 14:40:00,
2013-08-28 10:55:00,65.8,63.0,29.95,WNW,284,2.0,3.0,90,0.00,,,0.00,weatherlink.com 1.10,2013-08-28 14:55:00,
2013-08-28 11:11:00,66.6,64.0,29.95,NW,313,2.0,3.0,91,0.00,,,0.00,weatherlink.com 1.10,2013-08-28 15:11:00,
2013-08-28 11:25:00,67.8,64.0,29.95,WNW,290,2.0,3.0,88,0.00,,,0.00,weatherlink.com 1.10,2013-08-28 15:25:00,
2013-08-28 11:40:00,69.9,66.0,29.93,NNW,329,4.0,4.0,86,0.00,,,0.00,weatherlink.com 1.10,2013-08-28 15:40:00,
2013-08-28 11:55:00,70.5,67.0,29.94,NW,315,1.0,4.0,88,0.00,,,0.00,weatherlink.com 1.10,2013-08-28 15:55:00,
2013-08-28 12:10:00,72.8,67.0,29.93,NW,317,0.0,4.0,82,0.00,,,0.00,weatherlink.com 1.10,2013-08-28 16:10:00,
2013-08-28 12:26:00,74.4,67.0,29.93,SSE,147,2.0,3.0,77,0.00,,,0.00,weatherlink.com 1.10,2013-08-28 16:26:00,
2013-08-28 12:41:00,75.8,67.0,29.92,NW,310,1.0,2.0,75,0.00,,,0.00,weatherlink.com 1.10,2013-08-28 16:41:00,
2013-08-28 12:56:00,75.8,67.0,29.92,NNE,20,2.0,5.0,74,0.00,,,0.00,weatherlink.com 1.10,2013-08-28 16:56:00,
2013-08-28 13:11:00,77.4,68.0,29.92,SE,129,0.0,4.0,72,0.00,,,0.00,weatherlink.com 1.10,2013-08-28 17:11:00,
2013-08-28 13:26:00,77.1,67.0,29.91,SSE,165,1.0,8.0,71,0.00,,,0.00,weatherlink.com 1.10,2013-08-28 17:26:00,
2013-08-28 13:41:00,77.8,68.0,29.91,NNE,32,5.0,5.0,71,0.00,,,0.00,weatherlink.com 1.10,2013-08-28 17:41:00,
2013-08-28 13:56:00,76.7,67.0,29.91,WNW,301,4.0,5.0,72,0.00,,,0.00,weatherlink.com 1.10,2013-08-28 17:56:00,
2013-08-28 14:26:00,74.0,64.0,29.91,SSE,157,2.0,8.0,72,0.00,,,0.00,weatherlink.com 1.10,2013-08-28 18:26:00,
2013-08-28 14:41:00,73.6,66.0,29.91,SW,227,2.0,6.0,76,0.00,,,0.00,weatherlink.com 1.10,2013-08-28 18:41:00,
2013-08-28 14:56:00,71.8,64.0,29.91,SSW,210,0.0,7.0,75,0.00,,,0.00,weatherlink.com 1.10,2013-08-28 18:56:00,
2013-08-28 15:11:00,71.1,64.0,29.91,SSE,154,1.0,7.0,79,0.00,,,0.00,weatherlink.com 1.10,2013-08-28 19:11:00,
2013-08-28 15:26:00,71.5,65.0,29.91,SW,227,1.0,5.0,79,0.00,,,0.00,weatherlink.com 1.10,2013-08-28 19:26:00,
2013-08-28 15:41:00,72.7,65.0,29.91,WSW,257,2.0,4.0,76,0.00,,,0.00,weatherlink.com 1.10,2013-08-28 19:41:00,
2013-08-28 15:56:00,71.3,64.0,29.92,SSE,165,1.0,5.0,78,0.00,,,0.00,weatherlink.com 1.10,2013-08-28 19:56:00,
2013-08-28 16:11:00,71.8,65.0,29.92,West,265,2.0,4.0,78,0.00,,,0.00,weatherlink.com 1.10,2013-08-28 20:11:00,
2013-08-28 16:26:00,71.0,64.0,29.92,South,172,5.0,5.0,79,0.00,,,0.00,weatherlink.com 1.10,2013-08-28 20:26:00,
2013-08-28 16:41:00,70.1,63.0,29.92,NNW,329,0.0,4.0,79,0.00,,,0.00,weatherlink.com 1.10,2013-08-28 20:41:00,
2013-08-28 16:56:00,69.0,63.0,29.92,West,279,4.0,5.0,82,0.00,,,0.00,weatherlink.com 1.10,2013-08-28 20:56:00,
2013-08-28 17:11:00,69.6,64.0,29.92,SSE,150,0.0,5.0,82,0.00,,,0.00,weatherlink.com 1.10,2013-08-28 21:11:00,
2013-08-28 17:26:00,69.9,64.0,29.92,SE,137,1.0,4.0,81,0.00,,,0.00,weatherlink.com 1.10,2013-08-28 21:26:00,
2013-08-28 17:41:00,68.6,63.0,29.93,WSW,250,0.0,4.0,82,0.00,,,0.00,weatherlink.com 1.10,2013-08-28 21:41:00,
2013-08-28 17:56:00,67.5,63.0,29.92,SSE,150,1.0,2.0,84,0.00,,,0.00,weatherlink.com 1.10,2013-08-28 21:56:00,
2013-08-28 18:11:00,66.0,62.0,29.93,SSE,149,0.0,2.0,86,0.00,,,0.00,weatherlink.com 1.10,2013-08-28 22:11:00,
2013-08-28 18:26:00,64.3,61.0,29.94,SSE,148,0.0,2.0,88,0.00,,,0.00,weatherlink.com 1.10,2013-08-28 22:26:00,
2013-08-28 18:41:00,63.5,61.0,29.95,West,275,1.0,4.0,90,0.00,,,0.00,weatherlink.com 1.10,2013-08-28 22:41:00,
2013-08-28 18:56:00,62.8,61.0,29.96,West,273,0.0,2.0,92,0.00,,,0.00,weatherlink.com 1.10,2013-08-28 22:56:00,
2013-08-28 19:11:00,62.5,60.0,29.96,SE,125,0.0,1.0,92,0.00,,,0.00,weatherlink.com 1.10,2013-08-28 23:11:00,
2013-08-28 19:26:00,62.4,60.0,29.98,SE,125,0.0,0.0,92,0.00,,,0.00,weatherlink.com 1.10,2013-08-28 23:26:00,
2013-08-28 19:41:00,63.1,61.0,29.99,ESE,110,0.0,10.0,92,0.00,,,0.00,weatherlink.com 1.10,2013-08-28 23:41:00,
2013-08-28 19:56:00,63.3,61.0,30.00,SE,145,2.0,4.0,92,0.00,,,0.00,weatherlink.com 1.10,2013-08-28 23:56:00,
2013-08-28 20:11:00,63.1,61.0,30.00,SSW,200,0.0,5.0,92,0.00,,,0.00,weatherlink.com 1.10,2013-08-29 00:11:00,
2013-08-28 20:26:00,63.4,61.0,30.00,ESE,115,0.0,1.0,92,0.00,,,0.00,weatherlink.com 1.10,2013-08-29 00:26:00,
2013-08-28 20:41:00,63.7,61.0,30.01,ESE,117,0.0,0.0,92,0.00,,,0.00,weatherlink.com 1.10,2013-08-29 00:41:00,
2013-08-28 20:56:00,63.8,62.0,30.01,NE,36,0.0,2.0,93,0.00,,,0.00,weatherlink.com 1.10,2013-08-29 00:56:00,
2013-08-28 21:11:00,63.6,62.0,30.00,NNE,13,0.0,0.0,94,0.00,,,0.00,weatherlink.com 1.10,2013-08-29 01:11:00,
2013-08-28 21:26:00,63.3,62.0,29.99,SE,144,0.0,1.0,94,0.01,,,0.01,weatherlink.com 1.10,2013-08-29 01:26:00,
2013-08-28 21:41:00,63.3,62.0,29.99,SE,142,0.0,1.0,95,0.01,,,0.01,weatherlink.com 1.10,2013-08-29 01:41:00,
2013-08-28 21:56:00,63.4,62.0,30.00,SE,143,0.0,0.0,95,0.02,,,0.02,weatherlink.com 1.10,2013-08-29 01:56:00,
2013-08-28 22:11:00,63.6,63.0,30.00,SE,142,0.0,0.0,96,0.03,,,0.03,weatherlink.com 1.10,2013-08-29 02:11:00,
2013-08-28 22:26:00,63.6,63.0,29.99,SE,142,0.0,0.0,96,0.02,,,0.03,weatherlink.com 1.10,2013-08-29 02:26:00,
2013-08-28 22:41:00,63.7,63.0,29.99,South,187,0.0,0.0,96,0.02,,,0.03,weatherlink.com 1.10,2013-08-29 02:41:00,
2013-08-28 22:56:00,63.6,63.0,29.99,SE,138,0.0,1.0,96,0.01,,,0.03,weatherlink.com 1.10,2013-08-29 02:56:00,
2013-08-28 23:11:00,64.1,63.0,29.99,SSE,155,1.0,1.0,96,0.00,,,0.03,weatherlink.com 1.10,2013-08-29 03:11:00,
2013-08-28 23:26:00,64.0,63.0,30.00,SSE,153,1.0,2.0,96,0.00,,,0.03,weatherlink.com 1.10,2013-08-29 03:26:00,
2013-08-28 23:41:00,64.0,63.0,30.01,SSE,152,0.0,1.0,96,0.00,,,0.03,weatherlink.com 1.10,2013-08-29 03:41:00,
2013-08-28 23:56:00,64.2,63.0,30.02,SSW,213,0.0,1.0,97,0.00,,,0.03,weatherlink.com 1.10,2013-08-29 03:56:00,